This demonstration page uses our WeatherBlox Daily Observations layout. Learn more.

Left ArrowRight Arrow

Hourly Observations for February 18, 2020

Temp ( °F °C ) Dew Point ( °F °C ) Humidity (%) Winds ( mph kmh ) Pressure ( in mb ) Visibility ( mi km ) Precip ( " mm )
12:15 am 00:15 Partly Cloudy 45 7 28 -2 53 53 SSE 8 13 30.27 1025 10 16.0934 0 0
12:35 am 00:35 Partly Cloudy 45 7 30 -1 57 57 SSE 7 11 30.27 1025 10 16.0934 0 0
12:55 am 00:55 Clear 45 7 30 -1 57 57 SSE 10 17 30.28 1025 10 16.0934 0 0
1:15 am 01:15 Mostly Cloudy 45 7 32 0 61 61 SSE 6 9 30.28 1025 10 16.0934 0 0
1:35 am 01:35 Mostly Cloudy 43 6 32 0 66 66 S 5 7 30.29 1026 10 16.0934 0 0
1:55 am 01:55 Mostly Cloudy 43 6 32 0 66 66 SSE 7 11 30.27 1025 10 16.0934 0 0
2:15 am 02:15 Cloudy 43 6 32 0 66 66 S 5 7 30.27 1025 10 16.0934 0 0
2:35 am 02:35 Mostly Cloudy 43 6 32 0 66 66 S 6 9 30.27 1025 10 16.0934 0 0
3:15 am 03:15 Partly Cloudy 41 5 32 0 70 70 Calm 30.27 1025 10 16.0934 0 0
3:35 am 03:35 Partly Cloudy 41 5 32 0 70 70 SE 3 6 30.26 1025 10 16.0934 0 0
3:55 am 03:55 Clear 41 5 32 0 70 70 SSW 6 9 30.26 1025 10 16.0934 0 0
4:15 am 04:15 Clear 41 5 32 0 70 70 SSW 5 7 30.27 1025 10 16.0934 0 0
4:35 am 04:35 Clear 41 5 34 1 76 76 S 6 9 30.25 1025 10 16.0934 0 0
4:55 am 04:55 Clear 41 5 34 1 76 76 S 6 9 30.26 1025 10 16.0934 0 0
5:15 am 05:15 Clear 41 5 34 1 76 76 S 6 9 30.26 1025 10 16.0934 0 0
5:35 am 05:35 Partly Cloudy 41 5 34 1 76 76 S 6 9 30.26 1025 10 16.0934 0 0
5:55 am 05:55 Cloudy 41 5 34 1 76 76 S 3 6 30.26 1025 10 16.0934 0 0
6:15 am 06:15 Partly Cloudy 41 5 34 1 76 76 S 3 6 30.26 1025 10 16.0934 0 0
6:35 am 06:35 Clear 41 5 34 1 76 76 SE 3 6 30.25 1025 10 16.0934 0 0
6:55 am 06:55 Mostly Cloudy 41 5 34 1 76 76 SSE 3 6 30.26 1025 10 16.0934 0 0
7:15 am 07:15 Cloudy 41 5 36 2 81 81 SSE 3 6 30.26 1025 10 16.0934 0 0
7:35 am 07:35 Cloudy 41 5 36 2 81 81 SSE 5 7 30.26 1025 10 16.0934 0 0
7:55 am 07:55 Cloudy 41 5 36 2 81 81 S 8 13 30.26 1025 10 16.0934 0 0
8:15 am 08:15 Cloudy 43 6 36 2 76 76 S 9 15 30.25 1024 10 16.0934 0 0
8:35 am 08:35 Partly Cloudy 43 6 37 3 81 81 SSE 8 13 30.24 1024 10 16.0934 0 0
8:55 am 08:55 Mostly Cloudy 45 7 37 3 76 76 S 13 20 30.23 1024 10 16.0934 0 0
9:15 am 09:15 Partly Cloudy 45 7 39 4 81 81 SSE 12 19 30.23 1024 10 16.0934 0 0
9:35 am 09:35 Partly Cloudy 46 8 41 5 82 82 S 10 17 30.22 1023 10 16.0934 0 0
9:55 am 09:55 Sunny 46 8 41 5 82 82 S 8 13 30.22 1023 10 16.0934 0 0
10:15 am 10:15 Sunny 46 8 41 5 82 82 SSE 9 15 30.22 1023 10 16.0934 0 0
10:35 am 10:35 Sunny 48 9 41 5 76 76 S 10 17 30.19 1022 10 16.0934 0 0
10:55 am 10:55 Sunny 50 10 41 5 71 71 SSE 6 9 30.19 1022 10 16.0934 0 0
11:15 am 11:15 Sunny 50 10 41 5 71 71 S 8 13 30.17 1022 10 16.0934 0 0
11:35 am 11:35 Sunny 52 11 41 5 67 67 SSE 12 19 30.15 1021 10 16.0934 0 0
11:55 am 11:55 Partly Cloudy 52 11 39 4 62 62 S 12 19 30.13 1020 10 16.0934 0 0
12:15 pm 12:15 Partly Cloudy 54 12 37 3 54 54 S 9 15 30.11 1020 10 16.0934 0 0
12:35 pm 12:35 Mostly Cloudy 55 13 39 4 55 55 S 14 22 30.1 1019 10 16.0934 0 0
12:55 pm 12:55 Partly Cloudy 57 14 39 4 51 51 SSW 13 20 30.08 1019 10 16.0934 0 0
1:15 pm 13:15 Sunny 57 14 41 5 55 55 S 16 26 30.07 1018 10 16.0934 0 0
1:35 pm 13:35 Sunny 59 15 41 5 51 51 S 15 24 30.05 1018 10 16.0934 0 0
1:55 pm 13:55 Sunny 59 15 41 5 51 51 S 15 24 30.04 1017 10 16.0934 0 0
2:15 pm 14:15 Partly Cloudy 59 15 41 5 51 51 S 18 30 30.03 1017 10 16.0934 0 0
2:35 pm 14:35 Mostly Cloudy 59 15 41 5 51 51 SSW 15 24 30.02 1017 10 16.0934 0 0
2:55 pm 14:55 Cloudy 59 15 41 5 51 51 S 13 20 30.01 1016 10 16.0934 0 0
3:15 pm 15:15 Cloudy 59 15 41 5 51 51 SSW 9 15 30.01 1016 10 16.0934 0 0
3:35 pm 15:35 Cloudy 59 15 41 5 51 51 S 15 24 30 1016 10 16.0934 0 0
3:55 pm 15:55 Cloudy 59 15 43 6 55 55 SW 7 11 30.01 1016 10 16.0934 0 0
4:15 pm 16:15 Cloudy 59 15 43 6 55 55 SW 7 11 30.01 1016 10 16.0934 0 0
4:35 pm 16:35 Cloudy 57 14 43 6 59 59 SSW 7 11 30.01 1016 10 16.0934 0 0
4:55 pm 16:55 Cloudy 57 14 45 7 63 63 SSW 6 9 30.02 1017 10 16.0934 0 0
5:15 pm 17:15 Cloudy 55 13 43 6 63 63 SSW 6 9 30.02 1017 10 16.0934 0 0
5:35 pm 17:35 Cloudy 55 13 43 6 63 63 S 7 11 30.02 1017 10 16.0934 0 0
5:55 pm 17:55 Mostly Cloudy 55 13 45 7 67 67 SSW 7 11 30.01 1016 10 16.0934 0 0
6:15 pm 18:15 Mostly Cloudy 54 12 45 7 72 72 SSW 7 11 30.01 1016 10 16.0934 0 0
6:35 pm 18:35 Mostly Cloudy 54 12 45 7 72 72 SSW 5 7 30.01 1016 10 16.0934 0 0
6:55 pm 18:55 Mostly Cloudy 54 12 45 7 72 72 SW 5 7 30.02 1017 10 16.0934 0 0
7:15 pm 19:15 Mostly Cloudy 54 12 45 7 72 72 Calm 30.01 1016 10 16.0934 0 0
7:35 pm 19:35 Mostly Cloudy 54 12 45 7 72 72 W 3 6 30.02 1017 10 16.0934 0 0
7:55 pm 19:55 Mostly Cloudy 52 11 45 7 77 77 WNW 3 6 30.03 1017 10 16.0934 0 0
8:15 pm 20:15 Cloudy 52 11 45 7 77 77 WNW 5 7 30.04 1017 10 16.0934 0 0
8:35 pm 20:35 Cloudy 54 12 45 7 72 72 N 6 9 30.04 1017 10 16.0934 0 0
8:55 pm 20:55 Cloudy 52 11 43 6 72 72 NNE 6 9 30.05 1018 10 16.0934 0 0
9:15 pm 21:15 Cloudy 52 11 43 6 72 72 Calm 30.05 1018 10 16.0934 0 0
9:35 pm 21:35 Cloudy 52 11 43 6 72 72 Calm 30.07 1018 10 16.0934 0 0
9:55 pm 21:55 Cloudy 50 10 43 6 76 76 NNW 3 6 30.09 1019 10 16.0934 0 0
10:15 pm 22:15 Cloudy 50 10 43 6 76 76 NNW 3 6 30.09 1019 10 16.0934 0 0
10:35 pm 22:35 Cloudy 50 10 43 6 76 76 WNW 3 6 30.1 1019 10 16.0934 0 0
10:55 pm 22:55 Cloudy 52 11 45 7 77 77 NW 8 13 30.08 1019 10 16.0934 0 0
11:15 pm 23:15 Cloudy 52 11 45 7 77 77 NW 7 11 30.08 1019 10 16.0934 0 0
11:35 pm 23:35 Cloudy 52 11 45 7 77 77 NNW 6 9 30.08 1019 10 16.0934 0 0
11:55 pm 23:55 Cloudy 52 11 45 7 77 77 N 9 15 30.09 1019 10 16.0934 0 0

Powered by AerisWeather